Powrót do katalogu

ATLAS 5 CENTAUR R/B

AktywnyMEO
NORAD 51282·ROCKET BODY·🇺🇸 United States

Wystrzelony Jan 21, 2022 z Cape Canaveral Space Force Station

Loading…

Następne Przeloty (najbliższe 24 godziny)

TLE

ŚwieżeSource: Space-Track

Epoka: Sep 13, 2026, 20:06 UTC

1 51282U 22006C   26256.83767468 -.00000223  00000-0  00000-0 0  9996
2 51282   4.8284  74.9562 0262620  16.3849 344.7374  0.95003324 12032

Śledź ATLAS 5 CENTAUR R/B w czasie rzeczywistym z AllMySat

Download on the App Store